Location: Newark
(45.8667°N, 9.7333°E)
Time: 20:11:42
(UTC+00:00)

Vanguard 3 - Pass Details

Date: 31 January 2020
Orbit: 508 x 3263 km, 33.3° (Epoch: 22 February)

Event Time Altitude Azimuth Distance (km) Brightness Sun altitude
Rises 21:44:23 0° 278° (W) 7,151 12.4 -53.4°
Reaches altitude 10° 21:51:22 10° 265° (W) 5,874 11.7 -54.3°
Enters shadow 22:00:47 20° 233° (SW) 4,517 10.8 -55.5°
Maximum altitude 22:01:54 20° 228° (SW) 4,421 - -55.6°
Drops below altitude 10° 22:10:09 10° 188° (S) 4,426 - -56.5°
Sets 22:14:24 0° 171° (S) 4,956 - -57.0°
